Etusivu
METAR-TAF:

METAR-TAF

Lentoasemat :

Alamogordo, New Mexico, Yhdysvallat

Leveyspiiri: 32-50N, Pituuspiiri: 105-59W, korkeus merenpinnasta: 1279 m

Tämänhetkinen sää

Tämä raportti tehtiin 20 minuuttia sitten, kello 20.15 UTC
Tuuli 20 kn lännestä/lounaasta puuskistuen 25 kn:hen
Lämpötila 16°C
Kosteus 25%
Ilmanpaine 1016 hPa
Näkyvyys: 16.1 km
selkeää

METAR: KALM 232015Z AUTO 25020G25KT 10SM CLR 16/M04 A2999 RMK AO2

Aika: 13:35 (20:35 UTC)


TAF: puuttuu

Säähavainnot ja -ennusteet yli 4000 lentoasemalta (METAR- ja TAF-raportit).

Käytössä olevat sääasemat on merkitty karttaan keltaisilla ja punaisilla pisteillä.

Aseta hiiri pisteen päälle nähdäksesi sääaseman nimen.

Klikkaa sitten nähdäksesi säähavainnot ja -ennusteet.

Kartan vaihtaminen: klikkaa mustalla rastilla varustettuja vihreitä pisteitä, niin voit zoomata sisään; viivalla varustettua vihreää pistettä, niin voit zoomata ulos tai vihreitä nuolia, niin pääset viereisille kartoille.


METAR-TAF: